[TLELIST] Archives

 

[TLELIST] Current TLEs

August 8th 2024 PDT

HST 1 20580U 90037B 24220.79262190 .00009306 00000-0 42978-3 0 9991 2 20580 28.4698 359.1961 0001829 235.0923 124.9498 15.18474887684886 ISS (ZARYA) 1 25544U 98067A 24221.06706303 .00017895 00000-0 32346-3 0 9997 2 25544 51.6392 58.3140 0005861 173.2146 329.1956 15.49755186466599 CXO 1 25867U 99040B 24223.39936605 .00000718 00000-0 00000-0 0 9990 2 25867 42.3113 149.1512 8833948 299.6350 0.7198 0.37811338 14761 ...Continue Reading

[TLELIST] Current TLEs

August 7th 2024 PDT

HST 1 20580U 90037B 24219.80675292 .00008759 00000-0 40424-3 0 9997 2 20580 28.4698 5.8084 0001842 222.1787 137.8664 15.18456971684733 ISS (ZARYA) 1 25544U 98067A 24220.40831780 .00019091 00000-0 34471-3 0 9993 2 25544 51.6397 61.5752 0006026 170.0477 254.7551 15.49734731466491 CXO 1 25867U 99040B 24220.75370900 .00000655 00000-0 00000+0 0 9996 2 25867 42.2716 149.3233 8839176 299.5289 0.5440 0.37809098 25917 ...Continue Reading

[TLELIST] Current TLEs

August 7th 2024 PDT

HST 1 20580U 90037B 24219.80675292 .00008759 00000-0 40424-3 0 9997 2 20580 28.4698 5.8084 0001842 222.1787 137.8664 15.18456971684733 ISS (ZARYA) 1 25544U 98067A 24220.40831780 .00019091 00000-0 34471-3 0 9993 2 25544 51.6397 61.5752 0006026 170.0477 254.7551 15.49734731466491 CXO 1 25867U 99040B 24220.75370900 .00000655 00000-0 00000+0 0 9996 2 25867 42.2716 149.3233 8839176 299.5289 0.5440 0.37809098 25917 ...Continue Reading

[TLELIST] Current TLEs

August 6th 2024 PDT

HST 1 20580U 90037B 24218.82087296 .00009351 00000-0 43235-3 0 9991 2 20580 28.4695 12.4207 0001922 207.0965 152.9528 15.18439112684588 ISS (ZARYA) 1 25544U 98067A 24219.12402954 .00017877 00000-0 32397-3 0 9992 2 25544 51.6401 67.9362 0006169 166.0815 288.9946 15.49680634466290 CXO 1 25867U 99040B 24220.75370900 .00000655 00000-0 00000+0 0 9996 2 25867 42.2716 149.3233 8839176 299.5289 0.5440 0.37809098 25917 ...Continue Reading

[TLELIST] Current TLEs

August 6th 2024 PDT

HST 1 20580U 90037B 24218.82087296 .00009351 00000-0 43235-3 0 9991 2 20580 28.4695 12.4207 0001922 207.0965 152.9528 15.18439112684588 ISS (ZARYA) 1 25544U 98067A 24219.12402954 .00017877 00000-0 32397-3 0 9992 2 25544 51.6401 67.9362 0006169 166.0815 288.9946 15.49680634466290 CXO 1 25867U 99040B 24220.75370900 .00000655 00000-0 00000+0 0 9996 2 25867 42.2716 149.3233 8839176 299.5289 0.5440 0.37809098 25917 ...Continue Reading

[TLELIST] Current TLEs

August 5th 2024 PDT

HST 1 20580U 90037B 24217.83498059 .00014015 00000-0 65251-3 0 9999 2 20580 28.4695 19.0330 0001991 195.3674 164.6859 15.18427102684437 ISS (ZARYA) 1 25544U 98067A 24218.40833036 .00017319 00000-0 31445-3 0 9995 2 25544 51.6407 71.4795 0006064 163.3211 256.3606 15.49651608466189 CXO 1 25867U 99040B 24220.75370900 .00000655 00000-0 00000+0 0 9996 2 25867 42.2716 149.3233 8839176 299.5289 0.5440 0.37809098 25917 ...Continue Reading

[TLELIST] Current TLEs

August 4th 2024 PDT

HST 1 20580U 90037B 24217.17771280 .00009129 00000-0 42228-3 0 9995 2 20580 28.4695 23.4409 0002024 187.5392 172.5171 15.18406816684592 ISS (ZARYA) 1 25544U 98067A 24217.25647171 .00017268 00000-0 31399-3 0 9991 2 25544 51.6404 77.1858 0006206 160.1273 309.4674 15.49610582466002 CXO 1 25867U 99040B 24218.10874336 .00000614 00000-0 00000-0 0 9990 2 25867 42.2159 149.5335 8843784 299.3853 0.4937 0.37805422 14744 ...Continue Reading

[TLELIST] Current TLEs

August 4th 2024 PDT

HST 1 20580U 90037B 24217.17771280 .00009129 00000-0 42228-3 0 9995 2 20580 28.4695 23.4409 0002024 187.5392 172.5171 15.18406816684592 ISS (ZARYA) 1 25544U 98067A 24217.25647171 .00017268 00000-0 31399-3 0 9991 2 25544 51.6404 77.1858 0006206 160.1273 309.4674 15.49610582466002 CXO 1 25867U 99040B 24218.10874336 .00000614 00000-0 00000-0 0 9990 2 25867 42.2159 149.5335 8843784 299.3853 0.4937 0.37805422 14744 ...Continue Reading

[TLELIST] Current TLEs

August 3rd 2024 PDT

HST 1 20580U 90037B 24215.86316008 .00008504 00000-0 39302-3 0 9997 2 20580 28.4694 32.2564 0002154 172.5229 187.5396 15.18383667684131 ISS (ZARYA) 1 25544U 98067A 24216.16658206 .00019036 00000-0 34565-3 0 9994 2 25544 51.6407 82.5832 0006085 155.5388 350.0657 15.49577206465835 CXO 1 25867U 99040B 24218.10874336 .00000614 00000-0 00000-0 0 9990 2 25867 42.2159 149.5335 8843784 299.3853 0.4937 0.37805422 14744 ...Continue Reading

[TLELIST] Current TLEs

August 2nd 2024 PDT

HST 1 20580U 90037B 24214.87723244 .00008562 00000-0 39593-3 0 9997 2 20580 28.4693 38.8677 0002235 163.1391 196.9276 15.18367408683981 ISS (ZARYA) 1 25544U 98067A 24215.10864904 .00018133 00000-0 33014-3 0 9996 2 25544 51.6392 87.8212 0006118 152.4097 207.7217 15.49535697465678 CXO 1 25867U 99040B 24215.46343755 .00000554 00000-0 00000-0 0 9995 2 25867 42.1584 149.7525 8847160 299.2273 0.4224 0.37803139 14736 ...Continue Reading
  • This mailing list is a public mailing list - anyone may join or leave, at any time.
  • This mailing list is announce-only.

International Space Station (ISS) / Hubble Space Telescope (HST) / Chandra X-Ray Observatory Orbital Data via EMAIL

Privacy Policy:

Private list